TimePDT,TemperatureF,Dew PointF,Humidity,Sea Level PressureIn,VisibilityMPH,Wind Direction,Wind SpeedMPH,Gust SpeedMPH,PrecipitationIn,Events,Conditions,WindDirDegrees,DateUTC
12:56 AM,39.9,10.9,31,29.95,10.0,SSW,6.9,-,N/A,,Clear,200,2014-03-25 07:56:00
1:56 AM,39.0,6.1,26,29.94,10.0,South,9.2,-,N/A,,Clear,170,2014-03-25 08:56:00
2:56 AM,37.9,8.1,29,29.92,10.0,SSE,8.1,-,N/A,,Clear,160,2014-03-25 09:56:00
3:56 AM,37.9,8.1,29,29.91,10.0,South,6.9,-,N/A,,Clear,170,2014-03-25 10:56:00
4:56 AM,36.0,9.0,33,29.90,10.0,SSE,8.1,-,N/A,,Clear,160,2014-03-25 11:56:00
5:56 AM,39.9,7.0,26,29.89,10.0,SE,10.4,-,N/A,,Clear,140,2014-03-25 12:56:00
6:09 AM,39.0,7.0,27,29.98,10.0,South,6.9,-,N/A,,Partly Cloudy,170,2014-03-25 13:09:00
6:56 AM,39.0,7.0,27,29.89,10.0,SE,9.2,-,N/A,,Mostly Cloudy,140,2014-03-25 13:56:00
7:56 AM,41.0,9.0,27,29.89,10.0,SSE,4.6,-,N/A,,Mostly Cloudy,160,2014-03-25 14:56:00
8:56 AM,52.0,10.0,19,29.87,10.0,SSE,5.8,-,N/A,,Overcast,150,2014-03-25 15:56:00
9:56 AM,60.1,10.0,14,29.85,10.0,SE,9.2,-,N/A,,Overcast,140,2014-03-25 16:56:00
10:56 AM,64.9,10.9,12,29.82,10.0,SSE,12.7,-,N/A,,Overcast,160,2014-03-25 17:56:00
11:56 AM,66.9,12.0,12,29.86,10.0,South,17.3,-,N/A,,Overcast,190,2014-03-25 18:56:00
12:56 PM,68.0,14.0,12,29.76,10.0,SSW,16.1,-,N/A,,Overcast,200,2014-03-25 19:56:00
1:56 PM,68.0,16.0,14,29.73,10.0,SW,21.9,-,N/A,,Overcast,230,2014-03-25 20:56:00
2:56 PM,63.0,21.0,20,29.72,10.0,West,23.0,33.4,N/A,,Overcast,280,2014-03-25 21:56:00
3:56 PM,63.0,19.0,18,29.70,10.0,West,25.3,35.7,N/A,,Overcast,270,2014-03-25 22:56:00
4:56 PM,61.0,19.0,20,29.67,10.0,West,20.7,28.8,N/A,,Mostly Cloudy,260,2014-03-25 23:56:00
5:56 PM,61.0,21.9,22,29.66,5.0,West,34.5,43.7,N/A,,Haze,260,2014-03-26 00:56:00
6:56 PM,55.9,21.0,26,29.67,10.0,West,27.6,39.1,N/A,,Mostly Cloudy,280,2014-03-26 01:56:00
7:56 PM,54.0,19.9,26,29.67,10.0,West,20.7,29.9,N/A,,Mostly Cloudy,270,2014-03-26 02:56:00
8:56 PM,52.0,18.0,26,29.67,10.0,WSW,21.9,31.1,N/A,,Mostly Cloudy,250,2014-03-26 03:56:00
9:56 PM,48.9,19.0,31,29.67,10.0,NW,5.8,-,N/A,,Scattered Clouds,310,2014-03-26 04:56:00
10:56 PM,48.0,19.0,32,29.67,10.0,North,5.8,-,N/A,,Mostly Cloudy,360,2014-03-26 05:56:00
11:56 PM,48.0,21.9,36,29.65,10.0,WNW,6.9,-,N/A,,Mostly Cloudy,290,2014-03-26 06:56:00